Weather History for Franklin, NC

Change the Weather History Date:

Friday, January 21, 2005

  Actual Average (KTOC) Record (KTOC)
Temperature  
Mean Temperature 48 °F -  
Max Temperature 62 °F 51 °F 55 °F (2014)
Min Temperature 35 °F 31 °F 28 °F (2014)
Degree Days  
Heating Degree Days 16    
Moisture  
Dew Point 34 °F    
Average Humidity 56    
Maximum Humidity 87    
Minimum Humidity 34    
Precipitation  
Precipitation 0.00 in - - ()
Sea Level Pressure  
Sea Level Pressure 29.91 in    
Wind  
Wind Speed 2 mph (East)    
Max Wind Speed 10 mph    
Max Gust Speed -    
Visibility 10 miles    
Events      
Averages and records for this station are not official NWS values.
T = Trace of Precipitation, MM = Missing Value Source: NWS Daily Summary

Daily Weather History Graph

Daily Weather History Graph

Search for Another Location

Airport:

Trip Planner

Search our weather history database for the weather conditions in past years. The results will help you decide how hot, cold, wet, or windy it might be!

Date:

Astronomy

Jan. 21, 2005 Rise Set
Actual Time 7:39 AM EST 5:51 PM EST
Civil Twilight 7:12 AM EST 6:18 PM EST
Nautical Twilight 6:41 AM EST 6:49 PM EST
Astronomical Twilight 6:11 AM EST 7:19 PM EST
Moon 2:29 PM EST (1/21) 4:58 AM EST (1/21)
Length of Visible Light 11h 06m
Length of Day
10h 11m
Waxing Gibbous, 88% of the Moon is Illuminated
Jan 21
Waxing Gibbous
Jan 25
Full
Feb 2
Last Quarter
Feb 8
New
Feb 15
First Quarter

Hourly Weather History & Observations

Time (EST) Temp. Windchill Dew Point Humidity Pressure Visibility Wind Dir Wind Speed Gust Speed Precip Events Conditions
12:00 AM 37.4 °F - 30.2 °F 75% 29.87 in 10.0 mi Calm Calm - N/A   Overcast
12:20 AM 37.4 °F - 30.2 °F 75% 29.87 in 10.0 mi Calm Calm - N/A   Overcast
12:40 AM 37.4 °F - 30.2 °F 75% 29.86 in 10.0 mi Calm Calm - N/A   Overcast
1:00 AM 37.4 °F - 32.0 °F 81% 29.86 in 10.0 mi Calm Calm - N/A   Overcast
1:20 AM 37.4 °F - 32.0 °F 81% 29.86 in 10.0 mi Calm Calm - N/A   Overcast
1:40 AM 37.4 °F - 32.0 °F 81% 29.85 in 10.0 mi Calm Calm - N/A   Overcast
2:00 AM 37.4 °F - 30.2 °F 75% 29.85 in 10.0 mi Calm Calm - N/A   Overcast
2:20 AM 35.6 °F - 32.0 °F 87% 29.85 in 10.0 mi Calm Calm - N/A   Overcast
3:00 AM 35.6 °F - 32.0 °F 87% 29.85 in 10.0 mi Calm Calm - N/A   Overcast
3:20 AM 37.4 °F - 30.2 °F 75% 29.84 in 10.0 mi Calm Calm - N/A   Mostly Cloudy
3:40 AM 37.4 °F - 30.2 °F 75% 29.84 in 10.0 mi Calm Calm - N/A   Overcast
4:00 AM 39.2 °F - 32.0 °F 75% 29.83 in 10.0 mi Calm Calm - N/A   Overcast
4:20 AM 42.8 °F - 32.0 °F 66% 29.83 in 10.0 mi Calm Calm - N/A   Mostly Cloudy
4:40 AM 50.0 °F - 35.6 °F 58% 29.83 in 10.0 mi Calm Calm - N/A   Mostly Cloudy
5:00 AM 50.0 °F - 35.6 °F 58% 29.83 in 10.0 mi North 6.9 mph - N/A   Overcast
5:40 AM 50.0 °F - 35.6 °F 58% 29.85 in 10.0 mi WNW 4.6 mph - N/A   Overcast
6:00 AM 50.0 °F - 35.6 °F 58% 29.85 in 10.0 mi WNW 4.6 mph - N/A   Overcast
7:00 AM 50.0 °F - 35.6 °F 58% 29.87 in 10.0 mi SW 3.5 mph - N/A   Overcast
7:20 AM 50.0 °F - 35.6 °F 58% 29.89 in 10.0 mi Calm Calm - N/A   Overcast
7:40 AM 50.0 °F - 35.6 °F 58% 29.89 in 10.0 mi Calm Calm - N/A   Overcast
8:00 AM 50.0 °F - 35.6 °F 58% 29.90 in 10.0 mi Calm Calm - N/A   Overcast
8:40 AM 50.0 °F - 35.6 °F 58% 29.91 in 10.0 mi Calm Calm - N/A   Overcast
9:00 AM 50.0 °F - 35.6 °F 58% 29.92 in 10.0 mi North 4.6 mph - N/A   Overcast
9:20 AM 50.0 °F - 35.6 °F 58% 29.92 in 10.0 mi NNW 5.8 mph - N/A   Overcast
9:40 AM 50.0 °F - 35.6 °F 58% 29.93 in 10.0 mi North 6.9 mph - N/A   Scattered Clouds
10:00 AM 50.0 °F - 35.6 °F 58% 29.94 in 10.0 mi NW 4.6 mph - N/A   Clear
10:20 AM 51.8 °F - 37.4 °F 58% 29.94 in 10.0 mi Calm Calm - N/A   Clear
10:40 AM 53.6 °F - 35.6 °F 51% 29.95 in 10.0 mi North 6.9 mph - N/A   Clear
11:00 AM 53.6 °F - 35.6 °F 51% 29.95 in 10.0 mi North 5.8 mph - N/A   Clear
11:20 AM 55.4 °F - 35.6 °F 47% 29.95 in 10.0 mi NW 5.8 mph - N/A   Clear
11:40 AM 55.4 °F - 35.6 °F 47% 29.94 in 10.0 mi WNW 3.5 mph - N/A   Clear
12:00 PM 55.4 °F - 33.8 °F 44% 29.94 in 10.0 mi North 4.6 mph - N/A   Clear
12:20 PM 57.2 °F - 35.6 °F 44% 29.93 in 10.0 mi North 3.5 mph - N/A   Clear
12:40 PM 57.2 °F - 35.6 °F 44% 29.93 in 10.0 mi Calm Calm - N/A   Clear
1:00 PM 59.0 °F - 35.6 °F 42% 29.92 in 10.0 mi Calm Calm - N/A   Clear
2:00 PM 60.8 °F - 35.6 °F 39% 29.90 in 10.0 mi NNW 3.5 mph - N/A   Clear
2:20 PM 60.8 °F - 35.6 °F 39% 29.89 in 10.0 mi Calm Calm - N/A   Clear
2:40 PM 60.8 °F - 33.8 °F 36% 29.89 in 10.0 mi Calm Calm - N/A   Clear
3:00 PM 62.6 °F - 33.8 °F 34% 29.89 in 10.0 mi Calm Calm - N/A   Clear
3:20 PM 62.6 °F - 33.8 °F 34% 29.89 in 10.0 mi East 4.6 mph - N/A   Clear
3:40 PM 60.8 °F - 33.8 °F 36% 29.90 in 10.0 mi Calm Calm - N/A   Clear
4:00 PM 60.8 °F - 33.8 °F 36% 29.90 in 10.0 mi South 3.5 mph - N/A   Scattered Clouds
4:20 PM 60.8 °F - 33.8 °F 36% 29.91 in 10.0 mi SE 10.4 mph - N/A   Scattered Clouds
4:40 PM 59.0 °F - 33.8 °F 39% 29.92 in 10.0 mi SSE 9.2 mph - N/A   Mostly Cloudy
5:00 PM 59.0 °F - 32.0 °F 36% 29.93 in 10.0 mi SE 5.8 mph - N/A   Scattered Clouds
5:20 PM 55.4 °F - 32.0 °F 41% 29.94 in 10.0 mi SSE 4.6 mph - N/A   Scattered Clouds
5:40 PM 53.6 °F - 32.0 °F 44% 29.96 in 10.0 mi SE 5.8 mph - N/A   Clear
6:20 PM 51.8 °F - 32.0 °F 47% 29.98 in 10.0 mi SE 6.9 mph - N/A   Clear
6:40 PM 51.8 °F - 32.0 °F 47% 29.99 in 10.0 mi East 4.6 mph - N/A   Clear
7:00 PM 50.0 °F - 32.0 °F 50% 29.99 in 10.0 mi ENE 5.8 mph - N/A   Clear
7:20 PM 50.0 °F - 32.0 °F 50% 30.00 in 10.0 mi East 4.6 mph - N/A   Clear
8:00 PM 48.2 °F - 32.0 °F 54% 30.01 in 10.0 mi SE 4.6 mph - N/A   Clear
8:20 PM 46.4 °F 43.5 °F 32.0 °F 57% 30.01 in 10.0 mi SE 5.8 mph - N/A   Clear
8:40 PM 46.4 °F 42.4 °F 32.0 °F 57% 30.01 in 10.0 mi SE 8.1 mph - N/A   Clear
9:00 PM 46.4 °F 43.5 °F 32.0 °F 57% 30.02 in 10.0 mi ESE 5.8 mph - N/A   Clear
9:20 PM 44.6 °F 42.2 °F 32.0 °F 61% 30.02 in 10.0 mi ESE 4.6 mph - N/A   Clear
9:40 PM 44.6 °F 42.2 °F 32.0 °F 61% 30.03 in 10.0 mi ESE 4.6 mph - N/A   Clear
10:00 PM 44.6 °F 43.1 °F 32.0 °F 61% 30.04 in 10.0 mi ESE 3.5 mph - N/A   Clear
10:20 PM 42.8 °F 40.1 °F 32.0 °F 66% 30.03 in 10.0 mi ESE 4.6 mph - N/A   Clear
10:40 PM 42.8 °F 41.1 °F 32.0 °F 66% 30.03 in 10.0 mi ESE 3.5 mph - N/A   Clear
11:00 PM 42.8 °F 41.1 °F 32.0 °F 66% 30.03 in 10.0 mi East 3.5 mph - N/A   Clear
11:20 PM 42.8 °F 40.1 °F 32.0 °F 66% 30.03 in 10.0 mi East 4.6 mph - N/A   Clear
11:40 PM 42.8 °F 41.1 °F 32.0 °F 66% 30.04 in 10.0 mi East 3.5 mph - N/A   Clear